Погода в Средигорном

Казахстан     49°30′38″N   84°23′22″E
темп.,
°C
ветер,
м/с
пор.,
м/с
влажн.,
%
обл.,
%
осадки,
мм/ч
давл.,
гПа
погр.,
м
2 марта, вт
вт200:00−6ссз0097100 4.8 102321
03:00−6з1197100 2.6 102227
06:00−6с1197100 5.6 102222
09:00−5юз0196100 2.3 102278
12:00−4зюз1195100 3.9 1020177
15:00−3зюз1195100 2.1 1019164
18:00−4вюв1197100 3.7 101821
21:00−4юз1297100 1.9 101734
3 марта, ср
ср300:00−4ююз2297100 4.5 101773
03:00−5ю3997100 2.1 1018408
06:00−5ююз3996100 3.3 1020292
09:00−5юз4995100 0.8 1021507
12:00−4юз6109095 1.0 1021714
15:00−6юз5118622 0.0 1022630
18:00−10юз448911 0.0 102629
21:00−13ю22920 0.0 103021
4 марта, чт
чт400:00−15юв11930 0.0 103220
03:00−17вюв11890 0.0 103320
06:00−17в22810 0.0 103420
09:00−14всв117834 0.0 103320
12:00−10св116753 0.0 1031158
15:00−8св117714 0.0 102898
18:00−14св11837 0.0 103021
21:00−16в11813 0.0 103121
5 марта, пт
пт500:00−15всв117617 0.0 103021
03:00−15в116863 0.0 102820
06:00−15всв126172 0.0 102520
09:00−9всв1160100 0.0 102250
12:00−6зсз1169100 0.5 1021126
15:00−7с2293100 0.7 1024130
18:00−7ссв1196100 2.0 103128
21:00−8ю2398100 0.1 103621
6 марта, сб
сб600:00−10юв229793 0.1 103721
03:00−12в119524 0.0 103621
06:00−14в119433 0.0 103621
09:00−11всв118733 0.0 103421
12:00−7св118034 0.0 1030128
15:00−5с118427 0.0 102797
18:00−11св118824 0.0 102821
21:00−12всв11901 0.0 102821